TimeEST,TemperatureF,Dew PointF,Humidity,Sea Level PressureIn,VisibilityMPH,Wind Direction,Wind SpeedMPH,Gust SpeedMPH,PrecipitationIn,Events,Conditions,WindDirDegrees,DateUTC
12:56 AM,37.9,34.0,86,30.11,10.0,NE,3.5,-,N/A,,Clear,40,2012-11-25 05:56:00
1:56 AM,37.9,30.9,76,30.11,10.0,NE,3.5,-,N/A,,Clear,50,2012-11-25 06:56:00
2:56 AM,36.0,27.0,70,30.12,10.0,NE,5.8,-,N/A,,Clear,50,2012-11-25 07:56:00
3:56 AM,36.0,27.0,70,30.13,10.0,NNE,6.9,-,N/A,,Clear,20,2012-11-25 08:56:00
4:56 AM,35.1,26.1,70,30.14,10.0,NE,8.1,-,N/A,,Clear,40,2012-11-25 09:56:00
5:56 AM,33.1,25.0,72,30.17,10.0,North,6.9,-,N/A,,Clear,10,2012-11-25 10:56:00
6:56 AM,32.0,25.0,75,30.17,10.0,NE,6.9,-,N/A,,Clear,40,2012-11-25 11:56:00
7:56 AM,36.0,26.1,67,30.19,10.0,NNE,6.9,-,N/A,,Clear,30,2012-11-25 12:56:00
8:56 AM,42.1,25.0,51,30.20,10.0,NNE,5.8,-,N/A,,Clear,30,2012-11-25 13:56:00
9:56 AM,48.0,26.1,42,30.21,10.0,NE,5.8,-,N/A,,Clear,50,2012-11-25 14:56:00
10:56 AM,52.0,28.9,41,30.20,10.0,East,5.8,-,N/A,,Clear,80,2012-11-25 15:56:00
11:56 AM,54.0,30.9,41,30.18,10.0,Calm,Calm,-,N/A,,Clear,0,2012-11-25 16:56:00
12:56 PM,57.0,33.1,40,30.14,10.0,NE,3.5,-,N/A,,Clear,50,2012-11-25 17:56:00
1:56 PM,59.0,35.1,41,30.12,10.0,Calm,Calm,-,N/A,,Partly Cloudy,0,2012-11-25 18:56:00
2:56 PM,61.0,35.1,38,30.10,10.0,South,10.4,-,N/A,,Clear,190,2012-11-25 19:56:00
3:56 PM,59.0,41.0,51,30.10,10.0,SE,10.4,-,N/A,,Partly Cloudy,140,2012-11-25 20:56:00
4:56 PM,53.6,42.8,67,30.11,10.0,SSE,8.1,-,N/A,,Partly Cloudy,160,2012-11-25 21:56:00
5:56 PM,48.0,42.1,80,30.12,10.0,SSE,5.8,-,N/A,,Clear,160,2012-11-25 22:56:00
6:56 PM,46.9,42.1,83,30.14,10.0,Calm,Calm,-,N/A,,Clear,0,2012-11-25 23:56:00
7:56 PM,46.9,43.0,86,30.15,10.0,Calm,Calm,-,N/A,,Clear,0,2012-11-26 00:56:00
8:56 PM,42.1,39.9,92,30.15,10.0,Calm,Calm,-,N/A,,Clear,0,2012-11-26 01:56:00
9:56 PM,45.0,43.0,93,30.16,10.0,Calm,Calm,-,N/A,,Clear,0,2012-11-26 02:56:00
10:56 PM,41.0,39.0,93,30.16,10.0,Calm,Calm,-,N/A,,Clear,0,2012-11-26 03:56:00
11:56 PM,44.1,42.1,93,30.16,7.0,Calm,Calm,-,N/A,Fog,Shallow Fog,0,2012-11-26 04:56:00